[Iaude] MPEC R45: 2023 RW [a=1.60,e=0.39,i=22.9,H=25.3]

mpec at marsden.cfa.harvard.edu mpec at marsden.cfa.harvard.edu
Thu Sep 7 22:28:57 EDT 2023


M.P.E.C. 2023-R45                             Issued 2023 September 8, 02:27 UT

     The Minor Planet Electronic Circulars contain information on unusual
         minor planets, routine data on comets and natural satellites,
         and occasional editorial announcements.  They are published
    on behalf of Division F of the International Astronomical Union by the
          Minor Planet Center, Smithsonian Astrophysical Observatory,
                          Cambridge, MA 02138, U.S.A.
			  
             Prepared using the Tamkin Foundation Computer Network

                              MPC at CFA.HARVARD.EDU
            URL https://www.minorplanetcenter.net/    ISSN 1523-6714

                                    2023 RW                                     


Observations:
     K23R00W  C2023 09 05.35474022 22 09.515-00 10 21.19         20.02GVER045F51
     K23R00W  C2023 09 05.35749122 22 08.314-00 09 28.87         20.46GVER045F51
     K23R00W  C2023 09 05.41025422 21 44.592+00 07 29.27               VER045F51
     K23R00W*1C2023 09 06.22272822 16 46.765+04 09 42.91         20.23GVER045G96
     K23R00W 1C2023 09 06.22834322 16 44.591+04 11 16.55         19.74GVER045G96
     K23R00W 1C2023 09 06.23396022 16 42.416+04 12 50.62         19.61GVER045G96
     K23R00W 1C2023 09 06.23957322 16 40.220+04 14 24.36         20.15GVER045G96
     K23R00W 1C2023 09 06.40131622 15 38.754+04 58 36.05         20.15GVER045G96
     K23R00W 1C2023 09 06.40147722 15 38.704+04 58 38.28         21.33GVER045G96
     K23R00W 1C2023 09 06.40163722 15 38.668+04 58 41.30         20.76GVER045G96
     K23R00W 1C2023 09 06.40179722 15 38.617+04 58 43.75         20.54GVER045G96
     K23R00W IC2023 09 06.98948122 12 33.26 +07 29 06.8          20.8 GVER045L01
     K23R00W KC2023 09 06.99180822 12 32.49 +07 29 39.7          20.5 GVER045L01
     K23R00W IC2023 09 06.99492322 12 31.49 +07 30 25.8          20.3 GVER045L01
     K23R00W KC2023 09 07.18696422 11 38.77 +08 16 39.8          20.3 GXER045858
     K23R00W KC2023 09 07.19346722 11 36.61 +08 18 11.8          20.6 GXER045858
     K23R00W KC2023 09 07.19990622 11 34.43 +08 19 42.6          20.5 GXER045858

Observer details:
858 Tebbutt Observatory, Edgewood.  Observer F. B. Zoltowski.  0.51-m f/8.1
    Schmidt-Cassegrain + CCD.
F51 Pan-STARRS 1, Haleakala.  Observers J. Bulger, K. Chambers, T. Lowe, P.
    Minguez, A. Schultz, I. Smith.  Measurers S. Chastel, J. Fairlamb, M.
    Huber, Y. Ramanjooloo, R. Wainscoat, R. Weryk.  1.8-m Ritchey-Chretien +
    CCD.
G96 Mt. Lemmon Survey.  Observer A. R. Gibbs.  Measurers E. J. Christensen, D.
    Fay, J. B. Fazekas, D. C. Fuls, A. R. Gibbs, A. D. Grauer, H. Groeller, J.
    K. Hogan, R. A. Kowalski, S. M. Larson, G. J. Leonard, D. Rankin, R. L.
    Seaman, A. Serrano, F. C. Shelly, K. W. Wierzchos.  1.5-m reflector + 10K
    CCD.
L01 Visnjan Observatory, Tican.  Observer K. Korlevic.  1.0-m f/2.9 reflector
    + CCD.

Orbital elements:
2023 RW                                                  Earth MOID = 0.0506 AU
Epoch 2023 Sept. 13.0 TT = JDT 2460200.5                MPC                     
M  24.22808              (2000.0)            P               Q                  
n   0.48874145     Peri.  314.23911     +0.43821678     +0.88946197             
a   1.5961852      Node   340.55562     -0.67288253     +0.22893555             
e   0.3877077      Incl.   22.93162     -0.59598252     +0.39553245             
P   2.02           H   25.36          G   0.15           U   9                  
Residuals in seconds of arc
230905 F51  0.0   0.3+    230906 G96  0.4-  0.9+    230906 L01  0.2-  0.3-
230905 F51  0.5+  0.6-    230906 G96  0.4-  0.1-    230906 L01  0.5+  0.4+
230905 F51  0.4-  0.4+    230906 G96  0.3-  0.5-    230907 858  0.4+  0.4-
230906 G96  0.0   0.5+    230906 G96  0.0   0.0     230907 858  0.3+  0.4-
230906 G96  0.0   0.3+    230906 G96  0.1+  0.2-    230907 858  0.2-  0.6-
230906 G96  0.0   0.7+    230906 L01  0.4-  0.7+

Ephemeris:
2023 RW                  a,e,i = 1.60, 0.39, 23                  q = 0.9773
Date    TT    R. A. (2000) Decl.     Delta      r    Elong.  Phase     V
2023 08 09    08 10 18.4 -60 12 31   0.1905  0.9898    77.3    91.8    25.0
...
2023 08 24    04 29 32.2 -72 45 14   0.08039 1.0274    99.4    76.2    22.6
...
2023 09 01    23 07 07.6 -32 18 22   0.05101 1.0560   155.4    23.5    20.1
...
2023 09 07    22 12 32.4 +07 32 39   0.07626 1.0806   161.7    17.0    20.8
2023 09 08    22 07 49.9 +11 15 49   0.08295 1.0850   157.8    20.5    21.1
2023 09 09    22 03 46.9 +14 24 00   0.09000 1.0894   154.5    23.5    21.4
...
2023 09 15    21 48 30.4 +25 38 09   0.1368  1.1170   142.1    33.5    22.7
...
2023 09 23    21 40 59.4 +31 35 02   0.2048  1.1567   134.6    38.1    23.8
...
2023 10 08    21 43 55.4 +34 47 15   0.3399  1.2372   127.8    39.7    25.1

A. U. Tomatic                (C) Copyright 2023 MPC           M.P.E.C. 2023-R45





More information about the Iaude mailing list